^^
Saratoga-Weather Station Historical Data
Daily Summary for May 13, 2020 Units:  English    Metric   Both
Daily Weekly Monthly Yearly Custom
  High: Low: Average:
Temperature: 70 °F 57.9 °F 61.2 °F
Dew Point: 51.6 °F 46.6 °F 47.8 °F
Humidity: 69% 51% 62%
Wind Speed: 4mph 0mph 0.7mph
Wind Gust: 7mph - -
Wind- - SSW
Pressure: 30.2 in 30.2 in -
Precipitation: 0 in    
Historical Graphs
 
 
Tabular Data for May 13, 2020
Time Temperature Dew Point Pressure Wind Wind Speed Wind Gust Humidity Rainfall Rate (Hourly) solar
00:01 63 °F 47.5 °F 30.2 in ESE 2 mph 2 mph 57% 0 in 0 W/m2
00:06 62.8 °F 47.3 °F 30.2 in ESE 0.9 mph 1 mph 57% 0 in 0 W/m2
00:11 62.4 °F 47.5 °F 30.2 in ESE 0.9 mph 2 mph 58% 0 in 0 W/m2
00:16 62.2 °F 47.3 °F 30.2 in Calm     58% 0 in 0 W/m2
00:21 62.1 °F 47.1 °F 30.2 in SE 0.9 mph 2 mph 58% 0 in 0 W/m2
00:26 62.1 °F 47.5 °F 30.2 in Calm   1 mph 59% 0 in 0 W/m2
00:31 62.1 °F 47.5 °F 30.2 in Calm     59% 0 in 0 W/m2
00:36 61.7 °F 47.3 °F 30.2 in Calm   1 mph 59% 0 in 0 W/m2
00:41 61.5 °F 47.5 °F 30.2 in SSW 0.9 mph 2 mph 60% 0 in 0 W/m2
00:46 61.3 °F 47.3 °F 30.2 in SSW 0.9 mph 1 mph 60% 0 in 0 W/m2
00:51 61 °F 46.9 °F 30.2 in WSW 2 mph 2 mph 60% 0 in 0 W/m2
00:56 61 °F 47.5 °F 30.2 in WSW 0.9 mph 2 mph 61% 0 in 0 W/m2
01:01 61 °F 46.9 °F 30.2 in Calm   2 mph 60% 0 in 0 W/m2
01:06 61 °F 47.5 °F 30.2 in Calm   2 mph 61% 0 in 0 W/m2
01:11 60.8 °F 47.3 °F 30.2 in Calm   1 mph 61% 0 in 0 W/m2
01:16 60.6 °F 47.1 °F 30.2 in West 0.9 mph 1 mph 61% 0 in 0 W/m2
01:21 60.6 °F 47.1 °F 30.2 in Calm   4 mph 61% 0 in 0 W/m2
01:26 60.4 °F 46.9 °F 30.2 in Calm   1 mph 61% 0 in 0 W/m2
01:31 60.6 °F 47.1 °F 30.2 in Calm   3 mph 61% 0 in 0 W/m2
01:36 60.6 °F 46.6 °F 30.2 in North 2.9 mph 6 mph 60% 0 in 0 W/m2
01:41 61.2 °F 46.8 °F 30.2 in WSW 0.9 mph 7 mph 59% 0 in 0 W/m2
01:47 61.3 °F 46.9 °F 30.2 in NNW 0.9 mph 3 mph 59% 0 in 0 W/m2
01:52 61.3 °F 47.3 °F 30.2 in WNW 0.9 mph 7 mph 60% 0 in 0 W/m2
01:57 61.2 °F 47.1 °F 30.2 in WNW 0.9 mph 1 mph 60% 0 in 0 W/m2
02:02 60.8 °F 47.3 °F 30.2 in Calm   1 mph 61% 0 in 0 W/m2
02:07 60.4 °F 46.9 °F 30.2 in Calm   2 mph 61% 0 in 0 W/m2
02:12 60.4 °F 46.9 °F 30.2 in Calm   2 mph 61% 0 in 0 W/m2
02:17 60.6 °F 47.1 °F 30.2 in West 0.9 mph 3 mph 61% 0 in 0 W/m2
02:22 60.8 °F 46.8 °F 30.2 in Calm   1 mph 60% 0 in 0 W/m2
02:27 60.6 °F 47.5 °F 30.2 in NW 0.9 mph 1 mph 62% 0 in 0 W/m2
02:32 60.4 °F 47.3 °F 30.2 in WSW 2 mph 2 mph 62% 0 in 0 W/m2
02:37 60.3 °F 47.1 °F 30.2 in Calm   2 mph 62% 0 in 0 W/m2
02:42 60.3 °F 47.1 °F 30.2 in West 2.9 mph 3 mph 62% 0 in 0 W/m2
02:47 60.3 °F 47.7 °F 30.2 in WNW 0.9 mph 2 mph 63% 0 in 0 W/m2
02:52 60.1 °F 47.5 °F 30.2 in WNW 0.9 mph 2 mph 63% 0 in 0 W/m2
02:58 59.9 °F 47.3 °F 30.2 in Calm   1 mph 63% 0 in 0 W/m2
03:03 59.5 °F 47.3 °F 30.2 in Calm     64% 0 in 0 W/m2
03:08 59.4 °F 47.1 °F 30.2 in West 0.9 mph 2 mph 64% 0 in 0 W/m2
03:13 59.4 °F 47.1 °F 30.2 in Calm   2 mph 64% 0 in 0 W/m2
03:18 59.5 °F 47.3 °F 30.2 in Calm   1 mph 64% 0 in 0 W/m2
03:23 59.5 °F 47.3 °F 30.2 in Calm   2 mph 64% 0 in 0 W/m2
03:28 59.4 °F 47.7 °F 30.2 in SSW 2 mph 2 mph 65% 0 in 0 W/m2
03:33 59.4 °F 47.7 °F 30.2 in Calm   2 mph 65% 0 in 0 W/m2
03:38 59.2 °F 47.5 °F 30.2 in Calm   1 mph 65% 0 in 0 W/m2
03:43 58.8 °F 47.1 °F 30.2 in Calm   1 mph 65% 0 in 0 W/m2
03:48 58.8 °F 47.5 °F 30.2 in SW 0.9 mph 3 mph 66% 0 in 0 W/m2
03:53 59 °F 47.3 °F 30.2 in NNW 0.9 mph 2 mph 65% 0 in 0 W/m2
03:58 59 °F 47.3 °F 30.2 in West 0.9 mph 2 mph 65% 0 in 0 W/m2
04:03 59.4 °F 47.7 °F 30.2 in SW 0.9 mph 2 mph 65% 0 in 0 W/m2
04:08 59.5 °F 47.3 °F 30.2 in NW 2 mph 2 mph 64% 0 in 0 W/m2
04:13 59.5 °F 47.8 °F 30.2 in WNW 0.9 mph 2 mph 65% 0 in 0 W/m2
04:18 59.5 °F 47.3 °F 30.2 in Calm   1 mph 64% 0 in 0 W/m2
04:23 59.5 °F 47.3 °F 30.2 in Calm   2 mph 64% 0 in 0 W/m2
04:28 59.4 °F 47.1 °F 30.2 in WNW 2 mph 3 mph 64% 0 in 0 W/m2
04:33 59.5 °F 46.9 °F 30.2 in West 0.9 mph 3 mph 63% 0 in 0 W/m2
04:38 59.7 °F 47.5 °F 30.2 in Calm   2 mph 64% 0 in 0 W/m2
04:43 59.5 °F 47.3 °F 30.2 in NW 0.9 mph 1 mph 64% 0 in 0 W/m2
04:48 59.4 °F 47.1 °F 30.2 in Calm   2 mph 64% 0 in 0 W/m2
04:53 59.4 °F 47.7 °F 30.2 in West 2 mph 3 mph 65% 0 in 0 W/m2
04:58 59.4 °F 47.1 °F 30.2 in NE 0.9 mph 4 mph 64% 0 in 0 W/m2
05:04 59.4 °F 47.1 °F 30.2 in NW 0.9 mph 2 mph 64% 0 in 0 W/m2
05:09 59.5 °F 47.8 °F 30.2 in NW 0.9 mph 3 mph 65% 0 in 0 W/m2
05:14 59.2 °F 47.5 °F 30.2 in NW 0.9 mph 1 mph 65% 0 in 0 W/m2
05:19 58.8 °F 47.5 °F 30.2 in Calm   2 mph 66% 0 in 0 W/m2
05:24 58.5 °F 47.5 °F 30.2 in SW 2 mph 2 mph 67% 0 in 0 W/m2
05:29 58.3 °F 47.3 °F 30.2 in NE 0.9 mph 2 mph 67% 0 in 0 W/m2
05:34 57.9 °F 47.5 °F 30.2 in NE 0.9 mph 1 mph 68% 0 in 0 W/m2
05:39 57.9 °F 47.5 °F 30.2 in East 0.9 mph 2 mph 68% 0 in 0 W/m2
05:44 58.1 °F 47.1 °F 30.2 in Calm   1 mph 67% 0 in 0 W/m2
05:49 58.3 °F 47.3 °F 30.2 in Calm   1 mph 67% 0 in 5 W/m2
05:54 58.3 °F 47.3 °F 30.2 in Calm     67% 0 in 7 W/m2
05:59 58.1 °F 47.1 °F 30.2 in Calm   3 mph 67% 0 in 9 W/m2
06:04 58.1 °F 47.1 °F 30.2 in ENE 0.9 mph 2 mph 67% 0 in 11 W/m2
06:10 58.1 °F 47.1 °F 30.2 in Calm   1 mph 67% 0 in 16 W/m2
06:15 58.3 °F 47.3 °F 30.2 in Calm   2 mph 67% 0 in 19 W/m2
06:20 58.3 °F 47.3 °F 30.2 in West 0.9 mph 1 mph 67% 0 in 23 W/m2
06:25 58.3 °F 47.3 °F 30.2 in West 0.9 mph 1 mph 67% 0 in 23 W/m2
06:30 58.3 °F 47.3 °F 30.2 in Calm   2 mph 67% 0 in 23 W/m2
06:35 58.3 °F 47.8 °F 30.2 in West 0.9 mph 2 mph 68% 0 in 25 W/m2
06:40 58.3 °F 48.2 °F 30.2 in West 0.9 mph 2 mph 69% 0 in 25 W/m2
06:45 58.5 °F 48 °F 30.2 in NW 0.9 mph 1 mph 68% 0 in 25 W/m2
06:50 58.5 °F 47.5 °F 30.2 in NNW 0.9 mph 1 mph 67% 0 in 26 W/m2
06:55 58.6 °F 47.3 °F 30.2 in Calm   1 mph 66% 0 in 30 W/m2
07:00 58.8 °F 47.5 °F 30.2 in NE 0.9 mph 1 mph 66% 0 in 33 W/m2
07:06 58.8 °F 47.5 °F 30.2 in Calm   1 mph 66% 0 in 37 W/m2
07:11 59 °F 47.7 °F 30.2 in NNE 0.9 mph 2 mph 66% 0 in 44 W/m2
07:16 59.2 °F 47.5 °F 30.2 in NNE 0.9 mph 1 mph 65% 0 in 46 W/m2
07:21 59.4 °F 47.7 °F 30.2 in Calm   2 mph 65% 0 in 47 W/m2
07:26 59.4 °F 47.7 °F 30.2 in ENE 2 mph 3 mph 65% 0 in 49 W/m2
07:31 59.7 °F 47.5 °F 30.2 in Calm   1 mph 64% 0 in 51 W/m2
07:36 59.9 °F 47.7 °F 30.2 in North 2 mph 3 mph 64% 0 in 51 W/m2
07:41 60.1 °F 47.8 °F 30.2 in Calm   3 mph 64% 0 in 53 W/m2
07:46 60.3 °F 48 °F 30.2 in Calm   2 mph 64% 0 in 60 W/m2
07:51 60.4 °F 48.2 °F 30.2 in Calm   3 mph 64% 0 in 98 W/m2
07:56 60.6 °F 48.4 °F 30.2 in Calm   1 mph 64% 0 in 151 W/m2
08:01 61 °F 48.4 °F 30.2 in Calm   1 mph 63% 0 in 148 W/m2
08:06 61.3 °F 49.1 °F 30.2 in East 2 mph 2 mph 64% 0 in 218 W/m2
08:11 61.9 °F 48.7 °F 30.2 in Calm     62% 0 in 276 W/m2
08:16 62.4 °F 49.3 °F 30.2 in NNW 0.9 mph 1 mph 62% 0 in 278 W/m2
08:21 63 °F 49.3 °F 30.2 in Calm   1 mph 61% 0 in 295 W/m2
08:26 63.7 °F 49.5 °F 30.2 in WNW 3 mph 3 mph 60% 0 in 176 W/m2
08:31 64 °F 49.5 °F 30.2 in Calm     59% 0 in 90 W/m2
08:36 64.2 °F 49.6 °F 30.2 in NE 0.9 mph 1 mph 59% 0 in 86 W/m2
08:41 64.9 °F 49.3 °F 30.2 in NE 0.9 mph 1 mph 57% 0 in 90 W/m2
08:46 65.1 °F 50 °F 30.2 in Calm   1 mph 58% 0 in 90 W/m2
08:52 65.8 °F 49.6 °F 30.2 in Calm   1 mph 56% 0 in 90 W/m2
08:57 66 °F 49.8 °F 30.2 in Calm   1 mph 56% 0 in 86 W/m2
09:02 66.6 °F 49.5 °F 30.2 in ESE 0.9 mph 1 mph 54% 0 in 88 W/m2
09:07 66.7 °F 50 °F 30.2 in East 2 mph 3 mph 55% 0 in 88 W/m2
09:12 66.9 °F 50.2 °F 30.2 in East 0.9 mph 2 mph 55% 0 in 86 W/m2
09:17 66.9 °F 49.8 °F 30.2 in East 0.9 mph 2 mph 54% 0 in 149 W/m2
09:22 66.9 °F 49.8 °F 30.2 in SSE 0.9 mph 1 mph 54% 0 in 315 W/m2
09:27 67.3 °F 50 °F 30.2 in Calm   3 mph 54% 0 in 427 W/m2
09:32 67.6 °F 49.8 °F 30.2 in ENE 4 mph 4 mph 53% 0 in 471 W/m2
09:37 67.8 °F 50 °F 30.2 in Calm   3 mph 53% 0 in 478 W/m2
09:42 68.4 °F 51.1 °F 30.2 in ENE 0.9 mph 1 mph 54% 0 in 515 W/m2
09:47 68.4 °F 50.5 °F 30.2 in NE 0.9 mph 5 mph 53% 0 in 550 W/m2
09:52 68.5 °F 50.2 °F 30.2 in North 2 mph 5 mph 52% 0 in 568 W/m2
09:57 68.7 °F 50.9 °F 30.2 in ENE 0.9 mph 2 mph 53% 0 in 582 W/m2
10:02 69.4 °F 51.1 °F 30.2 in NE 0.9 mph 4 mph 52% 0 in 606 W/m2
10:07 69.8 °F 50.9 °F 30.2 in Calm   3 mph 51% 0 in 594 W/m2
10:12 70 °F 51.6 °F 30.2 in NE 2 mph 4 mph 52% 0 in 105 W/m2
Juneau County Weather
Compliments of Weather Underground - 2 mb